FW0708 Weather Reports


time (UTC)temp
F
wind
direction
speed
knots
gust
knots
rain 1hr
in
rain 24hr
in
rain mn
in
humidity
%
barometer
mb
20260510130011 40 260 0.0 1.7 0.00 0.00 0.00 85 1017.6
20260510124507 39 29 0.0 0.9 0.00 0.00 0.00 89 1017.5
20260510123007 38 29 0.0 0.0 0.00 0.00 0.00 91 1017.3
20260510121501 37 29 0.0 0.9 0.00 0.00 0.00 92 1016.8
20260510120056 35 30 0.0 0.0 0.00 0.00 0.00 92 1016.7
20260510114554 34 30 0.0 0.0 0.00 0.00 0.00 92 1016.5
20260510113052 33 30 0.0 0.0 0.00 0.00 0.00 91 1016.5
20260510111606 32 30 0.0 0.0 0.00 0.00 0.00 90 1016.2
20260510110145 32 30 0.0 0.0 0.00 0.00 0.00 90 1016.0
20260510104543 32 30 0.0 0.0 0.00 0.00 0.00 90 1015.7
20260510103042 32 30 0.0 0.0 0.00 0.00 0.00 90 1015.4
20260510101539 32 30 0.0 0.0 0.00 0.00 0.00 90 1015.2
20260510100038 32 30 0.0 0.0 0.00 0.00 0.00 89 1014.9
20260510094535 32 30 0.0 0.0 0.00 0.00 0.00 89 1014.8
20260510093056 32 30 0.0 0.0 0.00 0.00 0.00 90 1014.6
20260510091532 31 30 0.0 0.0 0.00 0.00 0.00 89 1014.4
20260510090046 31 30 0.0 0.0 0.00 0.00 0.00 89 1014.2
20260510084532 32 30 0.0 0.9 0.00 0.00 0.00 88 1014.1
20260510083028 32 30 0.0 0.0 0.00 0.00 0.00 87 1014.1
20260510081527 32 30 0.0 0.0 0.00 0.00 0.00 87 1013.9
20260510080031 33 30 0.0 0.0 0.00 0.00 0.00 86 1013.8
20260510074523 33 30 0.0 0.0 0.00 0.00 0.00 86 1013.7
20260510073020 33 30 0.0 0.0 0.00 0.00 0.00 86 1013.6
20260510071522 33 30 0.0 0.0 0.00 0.00 0.00 86 1013.5
20260510070019 33 30 0.0 1.7 0.00 0.00 0.00 86 1013.4
20260510064518 34 30 0.0 0.0 0.00 0.00 0.00 86 1013.4
20260510063018 34 30 0.0 0.0 0.00 0.00 0.00 86 1013.5
20260510061517 34 30 0.0 0.0 0.00 0.00 0.00 86 1013.3
20260510060015 34 30 0.0 0.0 0.00 0.00 0.00 87 1013.4
20260510054514 33 30 0.0 1.7 0.00 0.00 0.00 86 1013.3
20260510053012 33 30 0.0 0.0 0.00 0.00 0.00 86 1013.0
20260510051512 33 30 0.0 0.0 0.00 0.00 0.00 85 1013.0
20260510050008 33 30 0.0 0.0 0.00 0.00 0.00 84 1013.0
20260510044507 33 30 0.0 0.0 0.00 0.00 0.00 82 1012.9
20260510043009 34 30 0.0 0.0 0.00 0.00 0.00 80 1012.9
20260510041503 34 30 0.0 0.0 0.00 0.00 0.00 78 1012.8
20260510040002 35 30 0.0 0.0 0.00 0.00 0.00 78 1012.6
20260510034602 36 30 0.0 0.0 0.00 0.00 0.00 77 1012.5
20260510033100 36 30 0.0 0.0 0.00 0.00 0.00 75 1012.4
20260510031554 37 30 0.0 0.0 0.00 0.00 0.00 73 1012.2
20260510030048 38 30 0.0 0.0 0.00 0.00 0.00 71 1012.2
20260510024546 39 30 0.0 0.0 0.00 0.00 0.00 69 1012.0
20260510023048 40 30 0.0 0.9 0.00 0.00 0.00 66 1011.8
20260510021538 41 30 0.0 0.0 0.00 0.00 0.00 62 1011.7
20260510020035 43 30 0.0 0.9 0.00 0.00 0.00 60 1011.4
20260510014532 44 30 0.0 0.0 0.00 0.00 0.00 58 1011.4
20260510013030 46 30 0.0 0.0 0.00 0.00 0.00 54 1011.0
20260510011528 47 30 0.0 0.0 0.00 0.00 0.00 50 1010.8
20260510010025 48 30 0.0 0.0 0.00 0.00 0.00 49 1010.5
20260510004523 48 30 0.0 1.7 0.00 0.00 0.00 46 1010.2
20260510003025 49 30 0.0 0.9 0.00 0.00 0.00 45 1010.1
20260510001520 49 30 0.9 2.6 0.00 0.00 0.00 43 1010.0
20260510000021 49 27 0.0 0.9 0.00 0.00 0.00 43 1009.9
20260509234519 49 36 0.0 4.3 0.00 0.00 0.00 42 1009.7
20260509233023 49 26 0.9 3.5 0.00 0.00 0.00 43 1009.6
20260509231514 49 31 0.9 4.3 0.00 0.00 0.00 43 1009.3
20260509230017 50 47 2.6 7.8 0.00 0.00 0.00 42 1009.3
20260509224513 50 325 3.5 7.8 0.00 0.00 0.00 42 1009.2
20260509223015 50 39 1.7 7.0 0.00 0.00 0.00 43 1009.1
20260509221513 51 14 2.6 8.7 0.00 0.00 0.00 42 1009.0
20260509220010 51 14 4.3 10.4 0.00 0.00 0.00 42 1008.8
20260509214509 52 2 4.3 10.4 0.00 0.00 0.00 43 1008.9
20260509213009 51 353 4.3 11.3 0.00 0.00 0.00 45 1008.8
20260509211508 51 336 5.2 13.9 0.00 0.00 0.00 44 1008.7
20260509210008 51 316 8.7 13.9 0.00 0.00 0.00 40 1008.6
20260509204506 52 341 9.6 16.5 0.00 0.00 0.00 38 1008.6
20260509203004 52 341 10.4 14.8 0.00 0.00 0.00 40 1008.5
20260509201502 51 291 2.6 13.9 0.00 0.00 0.00 42 1008.0
20260509200002 51 324 7.8 14.8 0.00 0.00 0.00 41 1007.9
20260509194501 51 331 7.0 15.6 0.00 0.00 0.00 42 1007.8
20260509193136 50 336 10.4 17.4 0.00 0.00 0.00 43 1007.8
20260509191615 51 295 14.8 20.9 0.00 0.00 0.00 42 1007.5
20260509190056 51 336 11.3 19.1 0.00 0.00 0.00 43 1007.6
20260509184558 51 341 10.4 21.7 0.00 0.00 0.00 43 1007.3
20260509183054 51 336 8.7 20.0 0.00 0.00 0.00 43 1006.9
20260509181558 52 315 12.2 20.0 0.00 0.00 0.00 40 1006.4
20260509180049 52 358 11.3 19.1 0.00 0.00 0.00 41 1006.3
20260509174549 52 331 10.4 16.5 0.00 0.00 0.00 42 1006.0
20260509173047 53 270 8.7 17.4 0.00 0.00 0.00 41 1005.6
20260509171544 51 336 11.3 20.0 0.00 0.00 0.00 43 1005.5
20260509170043 53 299 10.4 19.1 0.00 0.00 0.00 44 1005.4
20260509164539 52 286 7.8 18.2 0.00 0.00 0.00 44 1005.1
20260509163038 52 267 10.4 17.4 0.00 0.00 0.00 43 1004.9
20260509161535 52 297 9.6 18.2 0.00 0.00 0.00 42 1004.8
20260509160029 51 327 11.3 20.9 0.00 0.00 0.00 43 1004.5
20260509154525 52 253 10.4 18.2 0.00 0.00 0.00 41 1004.2
20260509153023 51 327 11.3 19.1 0.00 0.00 0.00 41 1004.0
20260509151518 51 281 7.8 19.1 0.00 0.00 0.00 44 1003.7
20260509150015 51 308 13.9 20.9 0.00 0.00 0.00 41 1003.5
20260509144510 51 341 8.7 17.4 0.00 0.00 0.00 42 1003.2
20260509143008 51 323 12.2 17.4 0.00 0.00 0.00 41 1002.9
20260509141506 50 305 1.7 11.3 0.00 0.00 0.00 42 1002.6
20260509140058 49 312 4.3 11.3 0.00 0.00 0.00 44 1002.5
20260509134555 48 297 2.6 9.6 0.00 0.00 0.00 47 1002.4
20260509133051 47 292 4.3 12.2 0.00 0.00 0.00 45 1002.3
20260509131551 47 297 4.3 9.6 0.00 0.00 0.00 45 1002.1